Temp
64 65 64 64 64 64 64 64 64 64 63 64 64 63 63 63 63 58 55 64 65 69 68 64 64 61 60 57 58 54 46 42 46 48 52 57 56 58 61 60 57 59 58 60 62
64 64 64 65 64 63 64 64 64 63 63 63 64 63 63 63 55 52 63 68 69 68 62 59 56 59 55 54 55 50 43 47 51 51 52 55 56 59 57 56 55 56 58 59 60
63 63 63 64 64 63 63 63 63 63 63 63 63 63 63 60 51 54 67 68 68 67 62 60 59 57 51 52 52 49 47 49 53 54 55 54 53 55 56 51 58 58 58 58 57
62 62 62 63 63 63 63 63 63 62 62 62 62 63 62 57 43 59 67 67 67 64 60 58 56 51 48 48 51 47 52 52 54 55 54 52 54 52 53 55 58 59 60 58 58
60 61 61 62 62 63 63 63 63 62 62 62 62 62 56 49 50 64 66 65 63 60 57 55 53 52 48 48 50 47 50 53 54 53 53 55 52 51 54 57 56 57 59 58 59
60 60 60 61 61 62 62 62 62 62 62 62 62 61 49 40 61 62 63 63 61 58 55 56 54 56 51 49 48 50 50 50 52 52 53 51 50 52 56 56 55 57 57 57 58
60 59 60 60 60 61 61 62 62 61 62 63 63 57 47 46 59 59 61 60 62 60 56 58 58 53 53 48 52 49 45 48 50 51 51 51 47 48 56 54 56 56 56 57 58
60 59 59 59 60 60 61 61 61 62 61 62 62 53 45 58 56 59 59 58 61 61 61 61 60 55 52 53 51 45 45 39 46 49 52 52 41 50 55 52 54 54 52 55 57
59 58 59 59 59 60 61 61 61 62 62 62 54 49 42 59 52 57 57 55 58 58 59 64 59 51 52 44 40 41 34 39 45 50 48 47 39 51 54 50 50 51 52 53 54
58 58 58 59 59 59 60 60 60 60 59 57 56 46 48 46 52 54 55 56 53 54 52 50 51 44 41 40 32 37 37 39 39 46 44 42 41 50 51 48 48 49 50 49 51
57 58 58 59 59 60 57 53 48 47 50 47 47 45 46 52 55 51 55 53 52 48 39 44 42 37 39 46 43 43 39 35 39 48 42 41 40 47 53 45 46 47 46 49 53
57 57 58 58 59 59 54 48 48 52 43 51 50 51 51 51 45 48 56 46 45 38 42 39 38 43 46 44 43 40 35 33 41 45 42 40 38 44 47 45 47 51 50 52 53
57 57 57 57 59 55 51 50 54 57 42 45 50 48 49 50 44 44 51 46 40 37 39 35 38 46 43 40 39 38 35 35 37 42 40 38 38 39 44 43 47 51 53 53 53
56 57 57 57 51 51 46 53 55 53 35 38 43 46 49 50 43 50 52 47 41 38 38 37 41 41 38 39 40 35 42 41 39 37 30 36 27 34 38 42 43 47 49 50 50
56 56 57 58 47 46 49 52 53 48 22 41 41 54 48 44 44 43 51 46 38 38 39 34 37 38 37 39 43 37 43 40 39 35 32 30 29 31 34 38 44 47 50 48 48
55 56 56 52 49 50 52 53 49 31 21 34 41 40 40 45 45 44 45 47 45 39 37 36 40 39 39 41 44 43 39 37 34 32 22 30 30 30 35 42 42 44 45 47 46
55 55 53 52 45 49 52 46 30 23 35 32 36 40 39 38 41 42 39 37 35 29 27 31 34 38 42 37 40 40 35 22 23 21 21 28 29 38 42 46 46 47 47 46 46
55 55 52 52 50 51 47 35 23 30 31 36 38 40 35 41 39 39 37 34 39 33 29 28 24 36 40 38 36 38 38 26 18 19 22 30 27 34 41 45 46 47 46 46 48
54 49 47 50 50 49 39 27 27 29 35 33 36 33 33 40 38 37 35 35 38 38 32 26 28 37 38 42 43 35 34 40 28 18 19 25 30 38 43 45 46 42 45 46 49
43 45 44 50 48 45 33 29 27 33 37 36 32 35 29 34 34 34 34 39 37 42 39 34 28 34 40 41 41 39 44 31 26 11 11 23 25 32 38 44 46 44 45 45 47
41 37 45 49 45 35 28 29 30 34 34 32 32 32 33 31 36 32 33 38 43 40 43 37 34 28 36 33 35 35 34 34 35 29 21 18 27 35 43 47 46 46 44 45 45
36 31 45 47 32 32 29 25 34 32 34 33 28 32 33 34 33 31 34 38 44 45 36 39 35 28 29 36 44 44 40 39 31 24 30 27 32 41 40 41 42 45 45 43 44
32 33 45 45 28 27 22 25 29 29 31 31 29 30 34 32 29 34 36 42 42 42 38 40 33 26 25 33 34 35 39 41 39 32 28 24 33 42 40 43 44 44 44 43 42
32 28 35 36 34 22 15 16 18 32 31 32 31 33 29 30 34 30 35 38 40 44 46 45 36 32 28 34 34 32 37 39 38 30 32 32 37 41 37 41 44 42 40 40 42
32 31 34 28 30 29 27 23 19 20 30 33 29 29 28 22 26 31 33 36 37 43 44 40 30 33 35 40 36 36 36 37 35 37 32 36 37 43 46 42 42 41 38 39 42
32 31 30 33 35 31 29 22 27 24 30 26 26 31 33 29 31 26 33 33 35 37 40 39 30 32 30 36 35 33 36 38 38 39 38 39 38 49 52 43 41 42 40 39 43
35 35 38 34 32 29 26 27 29 32 30 35 33 31 28 32 37 36 38 37 36 34 33 32 32 30 27 33 32 27 34 36 38 41 40 34 43 49 48 43 44 41 42 44 45
MSLP
1017.59 1017.74 1017.72 1017.87 1018.10 1018.35 1018.50 1018.69 1018.84 1018.87 1018.93 1019.05 1019.00 1019.05 1019.08 1018.91 1018.69 1018.40 1017.95 1017.11 1017.02 1016.87 1016.55 1016.45 1016.24 1016.26 1016.27 1016.60 1016.86 1017.35 1018.30 1018.85 1018.24 1017.86 1016.55 1016.03 1016.04 1015.96 1016.01 1016.48 1016.97 1017.22 1017.63 1017.72 1017.79
1017.18 1017.43 1017.35 1017.45 1017.65 1017.87 1018.21 1018.34 1018.61 1018.80 1018.82 1018.96 1018.96 1019.01 1019.03 1018.93 1018.87 1018.34 1017.24 1016.95 1017.00 1016.97 1016.88 1016.91 1016.91 1016.76 1017.00 1017.17 1017.28 1017.67 1018.55 1018.11 1017.41 1016.87 1016.37 1016.07 1016.06 1016.05 1016.34 1016.73 1017.18 1017.38 1017.65 1017.86 1018.15
1016.79 1016.98 1017.10 1017.12 1017.22 1017.44 1017.75 1018.01 1018.30 1018.58 1018.74 1018.78 1018.98 1019.00 1019.05 1019.03 1018.93 1017.44 1016.95 1016.80 1016.88 1017.01 1017.05 1017.11 1017.15 1017.20 1017.41 1017.45 1017.55 1017.84 1017.94 1017.63 1017.15 1016.64 1016.30 1016.20 1016.26 1016.22 1016.39 1017.03 1016.73 1017.00 1017.38 1018.11 1018.50
1016.34 1016.50 1016.74 1016.85 1016.93 1017.15 1017.39 1017.65 1017.99 1018.28 1018.61 1018.74 1018.88 1019.14 1019.14 1019.21 1018.82 1017.11 1016.85 1016.71 1016.66 1016.92 1017.16 1017.10 1017.27 1017.55 1017.70 1017.77 1017.63 1017.93 1017.55 1017.43 1017.09 1016.77 1016.52 1016.44 1016.47 1016.58 1016.69 1016.49 1016.59 1016.73 1016.90 1017.73 1018.32
1016.04 1016.09 1016.19 1016.46 1016.67 1016.85 1017.13 1017.39 1017.62 1017.98 1018.34 1018.64 1018.77 1019.05 1019.26 1019.26 1018.22 1017.09 1016.92 1016.85 1016.74 1017.11 1017.25 1017.23 1017.32 1017.58 1017.84 1017.84 1017.84 1017.84 1017.64 1017.49 1017.15 1017.08 1016.97 1016.87 1016.93 1016.97 1016.74 1016.54 1016.65 1016.84 1017.19 1017.63 1018.03
1015.64 1015.72 1015.74 1016.05 1016.33 1016.64 1016.92 1017.20 1017.31 1017.59 1018.01 1018.37 1018.72 1018.99 1019.46 1019.20 1017.42 1017.25 1017.08 1017.20 1016.94 1017.28 1017.32 1017.39 1017.23 1017.26 1017.66 1017.85 1017.93 1017.69 1017.66 1017.66 1017.50 1017.49 1017.52 1017.49 1017.36 1017.37 1016.76 1016.63 1016.95 1017.13 1017.51 1017.76 1017.89
1014.97 1015.23 1015.62 1015.76 1016.04 1016.25 1016.69 1016.89 1017.08 1017.24 1017.64 1018.04 1018.51 1019.02 1019.35 1018.34 1017.38 1017.41 1017.30 1017.22 1017.21 1017.28 1017.36 1017.66 1017.25 1017.30 1017.49 1017.87 1017.91 1018.06 1018.24 1018.11 1017.99 1017.82 1017.89 1017.94 1018.00 1017.45 1016.81 1017.10 1017.39 1017.62 1017.86 1017.97 1017.83
1014.51 1014.72 1015.08 1015.44 1015.80 1015.90 1016.35 1016.70 1016.88 1017.09 1017.17 1017.63 1018.30 1018.98 1018.63 1017.44 1017.43 1017.58 1017.46 1017.33 1017.23 1017.27 1017.38 1017.59 1017.46 1017.37 1017.64 1018.00 1018.28 1018.68 1018.82 1018.94 1018.27 1018.15 1017.85 1018.14 1017.64 1017.41 1016.91 1017.54 1017.77 1017.80 1017.98 1017.94 1017.58
1014.01 1014.34 1014.72 1014.97 1015.40 1015.60 1015.90 1016.59 1016.76 1016.94 1017.12 1017.28 1018.35 1018.68 1018.35 1017.29 1017.44 1017.04 1017.43 1017.51 1017.39 1017.56 1017.85 1017.61 1017.53 1017.89 1018.17 1018.67 1019.31 1019.63 1019.72 1019.36 1018.78 1018.28 1018.40 1018.51 1018.01 1017.30 1017.03 1017.59 1017.79 1017.78 1017.85 1017.69 1017.39
1013.49 1013.80 1014.21 1014.51 1015.01 1015.30 1015.78 1016.45 1016.71 1016.93 1017.25 1017.46 1017.62 1019.03 1017.72 1016.97 1016.87 1016.99 1017.27 1017.53 1017.63 1017.94 1018.29 1018.17 1018.32 1018.55 1018.88 1019.19 1019.57 1019.79 1020.21 1019.96 1019.41 1018.88 1018.93 1018.85 1018.36 1017.30 1017.38 1017.69 1017.86 1017.67 1017.27 1017.30 1017.10
1012.79 1013.35 1013.78 1014.13 1014.59 1014.97 1015.77 1016.65 1017.37 1017.20 1016.65 1016.30 1016.72 1016.91 1016.41 1016.45 1016.72 1017.11 1017.34 1017.82 1018.15 1018.62 1018.86 1018.95 1019.07 1018.33 1018.99 1019.13 1019.42 1019.64 1020.04 1020.25 1020.05 1019.27 1019.39 1019.00 1018.66 1017.89 1017.15 1017.39 1017.35 1017.38 1017.23 1016.75 1016.09
1012.05 1012.73 1013.23 1013.83 1014.26 1014.78 1015.23 1015.40 1015.06 1015.14 1015.71 1015.71 1016.16 1016.57 1016.63 1016.34 1016.99 1017.16 1017.34 1018.18 1018.56 1019.05 1019.29 1019.68 1018.64 1019.17 1019.29 1019.67 1019.89 1020.16 1020.48 1020.51 1020.39 1019.89 1019.77 1019.24 1018.64 1017.81 1017.16 1016.71 1016.54 1016.37 1016.39 1015.87 1015.50
1011.48 1011.83 1012.55 1013.33 1013.83 1014.45 1014.77 1014.53 1015.04 1015.02 1015.47 1015.05 1015.44 1016.13 1016.53 1016.87 1016.58 1016.78 1017.25 1018.15 1018.66 1019.31 1019.39 1019.39 1019.20 1019.01 1019.49 1019.74 1020.07 1020.34 1020.51 1020.66 1020.72 1020.44 1020.00 1019.66 1017.90 1016.98 1015.91 1015.79 1015.88 1015.38 1014.95 1014.88 1014.67
1010.73 1011.29 1011.80 1012.73 1014.15 1014.06 1014.10 1014.82 1015.30 1015.83 1015.50 1014.73 1014.91 1015.16 1016.27 1016.68 1016.77 1016.44 1016.51 1017.35 1018.67 1019.29 1019.81 1019.79 1019.23 1019.28 1019.56 1019.50 1020.07 1020.38 1020.30 1020.83 1021.24 1021.57 1021.38 1020.70 1018.91 1016.92 1016.02 1015.90 1015.64 1014.70 1014.15 1013.96 1014.18
1009.96 1010.66 1011.25 1012.08 1012.77 1013.35 1013.81 1014.49 1015.47 1016.48 1014.25 1013.56 1014.02 1014.07 1014.75 1016.19 1016.47 1016.78 1016.37 1016.91 1017.94 1018.77 1019.49 1019.18 1019.23 1019.21 1019.12 1018.94 1019.68 1020.03 1020.12 1020.76 1021.32 1021.80 1021.96 1021.49 1021.45 1016.03 1016.27 1015.72 1015.25 1014.00 1013.46 1013.41 1013.38
1009.17 1009.86 1010.86 1011.62 1012.42 1012.63 1013.73 1014.37 1015.78 1014.81 1012.34 1012.66 1012.90 1013.54 1014.81 1015.02 1015.69 1016.63 1016.58 1017.01 1017.71 1018.68 1019.01 1019.16 1019.07 1018.92 1018.74 1018.89 1019.27 1019.83 1020.59 1021.38 1022.02 1022.58 1022.45 1021.21 1021.32 1015.64 1015.69 1014.21 1013.79 1013.41 1013.42 1013.48 1013.03
1008.54 1009.25 1010.17 1011.01 1011.37 1012.62 1013.29 1014.36 1014.02 1011.72 1012.46 1012.60 1012.32 1012.84 1013.12 1013.95 1015.23 1015.55 1016.65 1017.03 1017.26 1018.78 1019.02 1019.36 1019.08 1018.77 1018.49 1018.96 1019.33 1019.78 1020.63 1022.16 1023.16 1023.44 1022.10 1021.30 1021.06 1014.59 1014.31 1013.46 1013.21 1013.31 1013.15 1013.16 1013.09
1007.80 1008.63 1009.31 1010.15 1011.22 1011.97 1012.83 1013.06 1010.81 1010.66 1011.70 1011.75 1011.97 1012.46 1012.68 1013.41 1014.44 1015.11 1015.96 1016.57 1016.75 1016.78 1017.91 1018.81 1018.83 1018.30 1018.03 1017.83 1018.35 1019.05 1019.59 1020.63 1021.92 1022.88 1022.29 1021.72 1019.41 1014.42 1013.46 1012.80 1012.67 1012.73 1012.94 1013.02 1013.01
1007.19 1008.07 1008.93 1009.64 1010.51 1011.63 1011.58 1010.46 1009.85 1010.93 1010.95 1011.48 1012.18 1012.28 1012.77 1012.99 1013.49 1014.66 1014.96 1015.20 1015.35 1015.82 1016.90 1017.95 1017.72 1016.99 1017.10 1017.19 1017.43 1018.80 1019.01 1019.50 1021.13 1022.95 1022.54 1020.34 1017.81 1014.77 1013.03 1012.27 1011.90 1012.39 1012.80 1012.77 1012.91
1006.94 1007.10 1007.53 1008.87 1010.07 1010.69 1010.13 1010.15 1010.31 1010.80 1011.25 1011.76 1011.12 1011.25 1011.83 1012.25 1013.18 1013.78 1014.30 1013.86 1014.39 1014.81 1015.42 1016.23 1016.85 1016.61 1016.79 1017.01 1017.03 1016.97 1017.67 1019.15 1020.15 1021.72 1021.58 1019.17 1017.82 1014.75 1013.08 1012.16 1011.68 1011.90 1012.04 1012.35 1012.83
1007.11 1005.34 1006.10 1008.12 1010.09 1009.84 1008.86 1010.18 1010.83 1011.27 1011.90 1012.13 1011.43 1011.53 1011.40 1011.95 1012.51 1012.95 1013.10 1013.14 1013.41 1013.91 1014.81 1015.41 1015.74 1017.25 1017.01 1015.88 1015.75 1016.93 1016.97 1017.59 1018.36 1019.30 1019.14 1018.39 1015.35 1013.01 1011.98 1011.39 1011.51 1011.48 1012.07 1012.50 1012.90
1007.06 1005.53 1005.37 1006.81 1008.98 1009.21 1009.20 1010.32 1011.26 1011.74 1012.41 1012.37 1012.26 1011.75 1011.21 1011.89 1012.24 1012.47 1012.32 1011.87 1011.95 1012.67 1013.76 1014.38 1015.27 1016.33 1016.05 1015.30 1014.87 1014.48 1014.46 1015.76 1016.64 1017.09 1017.18 1016.67 1013.22 1011.40 1011.34 1011.45 1011.69 1011.56 1011.91 1012.51 1012.96
1006.87 1005.59 1004.83 1005.15 1006.83 1008.62 1010.26 1010.77 1011.26 1012.16 1011.77 1012.27 1012.69 1011.68 1011.44 1011.98 1012.57 1012.11 1012.16 1011.48 1011.94 1012.30 1012.42 1013.47 1014.38 1015.39 1015.75 1015.50 1014.74 1014.24 1014.48 1014.53 1015.02 1015.47 1015.48 1015.30 1011.92 1010.67 1011.10 1011.14 1011.19 1011.63 1012.00 1012.65 1013.30
1006.32 1005.25 1004.40 1005.13 1006.60 1007.99 1009.46 1010.59 1011.16 1011.17 1010.84 1011.06 1011.20 1011.83 1012.25 1012.28 1012.55 1012.15 1011.84 1011.89 1011.92 1011.94 1012.31 1012.80 1013.13 1013.47 1012.78 1011.82 1012.95 1013.99 1013.61 1013.87 1014.19 1014.71 1013.62 1013.44 1011.61 1010.45 1010.88 1011.08 1011.22 1011.68 1012.16 1012.59 1013.26
1005.09 1004.48 1002.66 1004.04 1005.87 1006.95 1008.03 1009.49 1010.66 1011.09 1010.86 1010.74 1011.51 1011.52 1011.84 1012.52 1012.41 1012.57 1012.59 1011.98 1012.06 1011.48 1012.18 1012.80 1012.73 1013.00 1011.86 1011.37 1012.11 1011.80 1012.29 1012.53 1012.83 1012.47 1012.73 1011.52 1011.02 1008.91 1010.21 1010.80 1011.20 1011.61 1012.07 1012.64 1012.85
1003.95 1003.73 1002.57 1002.65 1004.15 1006.60 1007.81 1008.38 1008.62 1009.43 1009.42 1010.26 1010.45 1010.35 1010.86 1011.34 1011.31 1011.85 1012.07 1012.18 1012.24 1012.11 1011.99 1012.38 1012.28 1012.43 1011.82 1011.75 1011.93 1011.62 1011.36 1011.62 1011.83 1011.63 1011.10 1010.51 1010.03 1007.86 1009.21 1009.85 1010.57 1011.05 1011.91 1012.44 1012.40
1001.39 1001.74 1001.58 1002.09 1003.71 1005.68 1004.71 1006.06 1007.02 1008.71 1009.21 1008.72 1009.14 1010.47 1011.01 1010.65 1010.63 1011.10 1011.66 1012.19 1012.75 1012.40 1012.57 1012.71 1012.27 1012.19 1011.29 1010.95 1011.28 1010.99 1010.99 1010.63 1010.05 1010.00 1009.69 1009.52 1007.83 1007.56 1007.72 1009.27 1009.78 1010.45 1010.95 1011.05 1011.41
Wind_Speed
13 13 12 16 15 13 12 11 10 8 7 7 6 5 7 10 12 4 5 4 1 6 6 5 5 6 3 2 3 3 5 4 6 7 6 4 4 2 3 6 1 1 2 2 8
13 14 13 14 16 15 13 11 10 8 7 5 5 3 6 9 3 7 8 7 4 6 4 4 3 5 3 2 2 5 4 9 6 5 4 2 3 7 5 4 3 2 1 3 8
14 13 14 13 12 14 15 12 10 9 8 6 5 3 4 5 4 6 4 4 6 2 0 2 0 1 2 1 2 4 6 4 4 3 1 2 2 1 6 3 7 9 6 7 5
15 14 15 14 10 11 13 14 12 10 9 6 5 3 1 2 4 3 6 7 4 4 1 2 2 3 3 4 2 2 4 4 1 1 1 0 3 1 4 2 1 6 6 9 11
14 16 15 13 9 8 8 12 14 12 10 8 6 5 1 1 8 5 6 6 4 2 3 3 4 5 4 3 3 3 2 4 2 1 3 3 4 2 5 4 2 1 8 11 10
13 12 14 14 10 8 7 9 10 13 12 11 9 7 3 3 2 7 4 4 2 2 2 3 3 4 3 2 4 2 0 0 2 2 3 2 3 3 6 4 3 4 7 7 8
14 13 12 13 12 10 8 7 7 11 14 14 13 4 3 12 3 6 4 2 2 2 1 3 1 2 3 2 1 1 1 2 4 4 5 4 6 8 9 4 5 5 6 7 10
16 13 13 13 14 11 8 7 7 7 14 16 14 4 7 4 2 4 4 3 2 1 2 1 1 2 2 2 4 1 3 2 2 3 3 7 9 7 9 6 10 9 7 8 10
18 16 15 13 14 13 10 8 7 6 8 14 7 6 8 2 4 7 3 1 3 1 3 2 1 2 3 5 4 5 2 5 6 7 1 6 5 5 6 7 9 9 9 9 10
19 18 16 15 15 14 11 8 4 3 1 4 5 3 3 6 4 5 4 3 3 4 2 1 1 3 2 4 6 7 5 3 4 1 1 5 10 14 7 2 9 10 11 8 10
18 18 17 16 14 13 9 4 2 4 6 6 5 4 3 5 3 3 5 4 4 3 6 2 8 12 8 10 2 4 4 4 4 4 3 8 9 16 16 6 10 12 10 11 14
20 21 18 18 17 16 7 8 5 2 5 15 10 12 2 2 4 4 8 6 4 5 5 3 16 5 6 4 4 4 4 5 5 4 3 8 11 11 11 8 9 14 13 16 12
21 21 20 18 19 12 12 20 4 4 3 4 12 10 3 1 3 12 12 5 4 7 8 6 3 11 7 5 5 4 5 4 2 5 3 7 12 10 8 5 8 13 14 11 12
21 21 20 20 13 9 14 9 5 4 7 8 11 8 5 2 5 4 8 8 4 10 6 7 3 7 4 11 8 13 8 7 3 3 5 3 12 6 5 8 6 12 13 12 11
23 22 23 25 5 13 5 8 8 4 15 11 11 11 14 12 7 5 4 5 10 9 8 7 9 9 11 8 10 4 6 9 6 3 4 2 5 5 1 6 11 12 13 10 10
24 23 23 16 6 8 7 11 8 11 13 9 11 16 12 16 9 5 4 3 4 5 2 4 1 4 5 3 12 6 6 6 4 3 5 8 7 7 6 6 4 4 4 7 10
24 23 21 10 11 8 13 9 14 18 7 8 12 17 24 13 16 12 14 10 10 6 7 1 6 3 5 6 3 5 8 2 1 3 8 1 5 19 8 11 8 9 10 7 7
24 22 18 12 9 12 12 13 19 12 17 3 10 20 23 19 14 13 16 14 14 4 5 10 7 13 7 8 7 14 10 8 9 6 3 1 12 11 8 9 9 9 8 8 6
21 12 9 12 14 13 14 18 17 5 10 12 12 15 17 21 10 14 15 19 18 16 12 7 8 3 4 6 11 6 12 6 6 3 3 6 9 10 14 14 11 7 7 9 6
4 11 14 17 8 13 14 28 7 5 3 7 21 13 14 23 16 21 18 16 10 20 3 7 2 3 12 3 4 8 9 4 2 4 5 5 6 11 6 8 10 8 9 7 6
3 8 10 19 14 7 14 10 2 5 3 6 11 10 10 12 19 15 9 9 24 21 18 6 4 3 7 12 15 6 8 5 5 6 6 2 9 10 16 14 9 9 3 6 8
2 6 14 18 13 6 11 9 7 9 4 2 2 6 8 11 15 13 19 16 20 19 24 11 5 7 10 5 14 22 19 20 8 9 8 2 12 4 8 6 6 10 6 5 8
3 4 11 17 13 7 1 4 7 7 9 13 4 2 2 8 7 15 13 7 11 20 19 16 7 5 2 2 3 13 14 17 13 3 12 8 15 2 3 6 7 8 6 3 5
3 5 6 6 4 9 8 6 4 3 6 4 7 5 4 5 3 5 16 9 8 21 17 17 10 14 19 16 10 12 18 18 18 14 17 12 24 16 1 5 8 6 5 7 9
6 6 6 16 14 12 10 13 8 7 1 6 3 7 9 6 4 8 4 1 2 14 18 9 9 20 26 23 9 15 21 24 24 24 17 27 25 28 17 10 6 6 2 7 11
7 6 1 16 16 15 17 14 23 7 13 8 6 16 16 12 12 11 10 5 9 4 12 9 6 10 22 20 12 12 17 23 22 27 25 25 20 27 19 7 7 9 6 8 11
6 3 10 18 19 18 22 19 20 14 4 11 14 8 6 16 12 5 5 5 3 4 7 5 11 10 20 23 21 18 19 20 24 23 25 26 32 30 28 9 10 9 12 16 15
Wind_Direction
262 263 252 245 230 226 225 230 243 246 238 264 268 296 318 334 330 339 251 205 160 351 334 319 9 354 31 66 66 120 70 201 211 159 232 174 163 170 132 123 89 301 164 290 134
255 259 257 250 239 223 218 219 223 229 226 247 243 270 318 343 332 272 255 288 328 355 50 43 19 354 31 10 50 98 141 218 202 198 205 176 196 170 136 146 215 247 139 107 137
246 247 258 249 243 234 217 210 209 210 223 227 229 231 320 350 344 261 324 327 255 249 35 117 187 92 124 12 185 152 192 215 212 212 200 163 166 302 140 203 214 197 177 158 159
247 243 241 247 232 239 234 213 199 197 204 213 205 213 342 34 236 318 335 349 327 176 203 104 108 121 142 187 184 171 221 177 260 317 13 112 325 203 197 214 305 252 179 161 172
254 241 236 233 222 237 234 251 207 191 191 190 185 171 98 209 255 320 344 356 59 93 176 152 142 135 181 186 139 176 241 168 243 302 327 348 282 289 259 235 19 81 158 181 185
245 247 235 228 210 223 231 245 230 198 183 180 178 139 120 231 299 353 340 342 58 107 211 173 182 181 163 157 173 222 135 3 281 288 298 236 269 132 274 196 115 141 186 196 208
241 235 230 228 214 205 222 225 226 229 185 181 171 127 169 232 113 357 338 315 337 172 105 261 121 120 132 157 205 98 319 341 207 200 235 172 270 213 238 174 209 203 222 223 230
239 238 238 225 226 202 204 235 246 231 214 175 161 113 241 240 230 297 309 319 311 321 335 204 355 92 112 110 36 119 57 63 243 170 228 132 258 248 248 186 241 246 235 238 244
247 231 224 234 228 204 188 221 240 254 233 179 136 140 248 103 170 219 144 224 124 99 258 310 114 127 71 108 54 6 215 217 306 193 194 192 275 249 240 198 245 254 232 229 254
238 238 221 220 228 208 191 192 248 252 230 178 115 101 251 213 181 143 148 56 112 124 82 141 99 155 85 128 194 184 200 245 236 341 254 249 262 273 265 210 242 253 267 253 239
226 233 227 217 211 215 189 135 161 217 197 193 168 247 50 125 122 86 123 111 94 105 161 231 204 210 186 199 126 139 152 180 253 266 268 243 246 261 272 254 247 249 253 255 253
226 221 219 223 214 216 179 202 186 128 211 216 186 210 58 206 110 138 131 138 147 171 143 147 227 184 166 208 167 144 155 201 278 280 211 282 260 250 260 237 227 243 241 243 249
228 216 210 215 218 211 212 214 13 35 268 239 185 201 169 267 238 176 142 136 141 157 189 183 186 186 171 186 192 197 168 172 212 328 297 328 275 235 242 237 253 255 241 241 232
221 225 205 201 221 202 224 189 159 49 248 202 180 215 157 86 275 187 163 132 174 181 139 244 216 166 172 216 169 240 174 187 247 8 249 38 289 273 247 249 248 259 257 252 236
220 217 211 191 134 192 191 141 136 127 229 191 165 156 149 170 154 219 174 68 162 168 152 225 174 169 204 203 174 211 163 186 195 198 342 179 283 271 288 251 254 248 256 267 245
216 209 211 198 171 203 151 146 158 216 214 185 142 167 157 191 188 108 152 83 147 141 349 196 180 188 193 123 174 147 84 50 61 123 269 188 172 252 197 220 241 262 269 306 290
213 205 198 188 205 157 167 169 213 215 131 176 178 174 185 171 180 162 176 181 162 141 219 112 219 237 166 124 125 155 129 52 227 198 233 35 184 258 277 262 230 258 278 283 331
210 201 202 198 151 168 177 205 227 194 189 180 169 185 191 176 193 176 168 190 219 149 112 193 273 188 186 174 168 194 178 163 198 198 255 339 230 253 249 287 260 249 257 276 302
207 199 195 188 166 181 195 209 212 153 161 158 160 183 201 198 154 176 189 199 195 181 185 172 251 155 165 154 145 170 214 190 106 37 51 221 288 289 260 274 268 229 228 242 231
298 194 198 176 187 183 201 215 178 103 146 227 184 180 189 185 194 191 189 198 208 200 141 208 271 198 191 123 245 180 146 180 107 149 247 261 270 241 300 274 265 264 218 228 177
276 195 172 158 159 217 222 195 148 114 62 212 207 174 195 174 195 195 195 205 194 192 197 166 145 281 139 208 172 154 193 205 157 170 181 257 257 212 227 239 264 287 255 227 185
26 239 162 146 185 181 209 153 137 166 153 35 98 226 155 175 201 202 202 214 203 184 198 193 182 199 204 232 208 204 203 193 186 214 233 139 259 192 225 260 258 278 269 198 179
177 258 167 158 195 166 60 147 153 147 175 155 232 177 199 177 223 206 230 247 191 183 191 180 217 205 277 305 207 212 218 204 212 56 205 195 255 146 261 278 264 264 295 205 175
124 250 158 182 107 136 135 177 168 334 147 123 136 109 79 205 168 302 211 192 182 203 198 167 214 213 228 232 136 201 205 213 209 227 233 221 259 246 180 258 282 284 272 185 187
164 244 198 176 192 186 154 158 142 162 204 144 92 165 153 179 159 214 323 255 253 209 199 198 219 218 235 238 193 205 207 212 213 221 218 236 239 257 242 239 251 268 262 197 199
228 184 187 189 173 160 174 203 185 174 157 195 173 193 191 196 190 189 182 189 227 178 207 200 221 200 236 242 225 230 212 212 219 224 232 247 253 255 258 201 209 223 186 209 212
183 158 196 161 168 175 201 181 189 159 260 201 191 140 161 214 199 147 130 108 120 166 198 217 215 208 233 226 231 233 224 209 220 226 220 232 240 248 252 230 225 200 200 208 213